[Iaude] MPEC V113: 2023 VK3 [a=0.86,e=0.19,i=2.9,H=28.2]
    mpec at marsden.cfa.harvard.edu 
    mpec at marsden.cfa.harvard.edu
       
    Wed Nov  8 06:47:12 EST 2023
    
    
  
M.P.E.C. 2023-V113                             Issued 2023 November 8, 11:45 UT
     The Minor Planet Electronic Circulars contain information on unusual
         minor planets, routine data on comets and natural satellites,
         and occasional editorial announcements.  They are published
    on behalf of Division F of the International Astronomical Union by the
          Minor Planet Center, Smithsonian Astrophysical Observatory,
                          Cambridge, MA 02138, U.S.A.
			  
             Prepared using the Tamkin Foundation Computer Network
                              MPC at CFA.HARVARD.EDU
            URL https://www.minorplanetcenter.net/    ISSN 1523-6714
                                    2023 VK3                                    
Observations:
     K23V03K 1C2023 11 05.43429 04 54 55.47 +11 42 47.3          22.2 GVEV113G96
     K23V03K 1C2023 11 05.43947 04 54 50.74 +11 41 52.4          21.7 GVEV113G96
     K23V03K 1C2023 11 05.44986 04 54 41.54 +11 40 01.7          21.4 GVEV113G96
     K23V03K*1C2023 11 07.40449304 27 33.455+05 18 52.70         20.57GVEV113G96
     K23V03K 1C2023 11 07.40966804 27 28.048+05 17 46.82         21.08GVEV113G96
     K23V03K 1C2023 11 07.41485004 27 22.604+05 16 39.00         20.63GVEV113G96
     K23V03K 1C2023 11 07.42004604 27 17.154+05 15 31.32         20.81GVEV113G96
     K23V03K KC2023 11 07.44587904 26 50.046+05 09 53.93         20.79GVEV113I52
     K23V03K KC2023 11 07.44702604 26 48.916+05 09 39.17         20.26GVEV113I52
     K23V03K KC2023 11 07.44817004 26 47.659+05 09 23.33         20.81GVEV113I52
     K23V03K KC2023 11 07.44932004 26 46.468+05 09 08.71         20.54GVEV113I52
     K23V03K KC2023 11 07.49353004 26 00.820+04 59 27.56         20.48GVEV113I52
     K23V03K KC2023 11 07.49505604 25 59.308+04 59 07.15         20.95GVEV113I52
     K23V03K KC2023 11 07.49658604 25 57.702+04 58 46.78         20.70GVEV113I52
     K23V03K KC2023 11 07.49811204 25 56.168+04 58 27.19         21.83GVEV113I52
     K23V03K KC2023 11 08.01280504 18 11.77 +03 02 40.7          20.8 GVEV113L01
     K23V03K KC2023 11 08.01490604 18 09.47 +03 02 12.0          20.8 GVEV113L01
     K23V03K KC2023 11 08.01725504 18 06.99 +03 01 39.4          20.8 GVEV113L01
     K23V03K |C2023 11 08.25064 04 14 21.13 +02 16 43.2          20.5 VuEV113807
     K23V03K |C2023 11 08.25717 04 14 13.70 +02 15 11.8          20.6 VuEV113807
     K23V03K |C2023 11 08.26370 04 14 06.33 +02 13 40.0          20.7 VuEV113807
Observer details:
807 Cerro Tololo Observatory, La Serena.  Observers T. Linder, R. Holmes, L.
    Horn.  0.61-m f/6.5 Dall-Kirkham Astrograph + CCD.
G96 Mt. Lemmon Survey.  Observers J. B. Fazekas, D. Rankin.  Measurers B.
    Gray, D. Rankin, F. C. Shelly, E. C. Beshore, D. Fay, J. B. Fazekas, D. C.
    Fuls, A. R. Gibbs, A. D. Grauer, H. Groeller, J. K. Hogan, R. A. Kowalski,
    S. M. Larson, G. J. Leonard, R. L. Seaman, K. W. Wierzchos.  1.5-m
    reflector + 10K CCD.
I52 Steward Observatory, Mt. Lemmon Station.  Observer H. Groeller.  Measurers
    E. C. Beshore, D. Fay, J. B. Fazekas, D. C. Fuls, A. R. Gibbs, A. D.
    Grauer, H. Groeller, J. K. Hogan, R. A. Kowalski, S. M. Larson, G. J.
    Leonard, D. Rankin, R. L. Seaman, F. C. Shelly, K. W. Wierzchos.  1.0-m
    prime focus + CCD.
L01 Visnjan Observatory, Tican.  Observer K. Korlevic.  1.0-m f/2.9 reflector
    + CCD.
Orbital elements:
2023 VK3                                                 Earth MOID = 0.0175 AU
Epoch 2023 Sept. 13.0 TT = JDT 2460200.5                Veres                   
M 126.23052              (2000.0)            P               Q                  
n   1.24655831     Peri.  355.94622     -0.82782240     +0.56013303             
a   0.8550555      Node   218.17247     -0.51327770     -0.77855984             
e   0.1861026      Incl.    2.87521     -0.22639804     -0.28301160             
P   0.79           H   28.29          G   0.15           U   6                  
Residuals in seconds of arc
231105 G96 (1.2+  0.5+)   231107 I52  0.1-  0.0     231107 I52  0.4+  0.1+
231105 G96  0.4-  0.3+    231107 I52  0.9+  0.3+    231108 L01  0.1-  0.1+
231105 G96  0.4+  0.3-    231107 I52  0.1-  0.6-    231108 L01  0.4-  0.1+
231107 G96 (1.3-  1.2-)   231107 I52  0.1+  0.1-    231108 L01  0.6+  0.4-
231107 G96  0.5-  0.2+    231107 I52  0.1+  0.0     231108 807  0.2+  0.3+
231107 G96  0.2-  0.1-    231107 I52  0.8+  0.3-    231108 807  0.3-  0.2-
231107 G96  0.1+  0.1-    231107 I52  0.1+  0.4-    231108 807 (0.2+  0.9-)
Ephemeris:
2023 VK3                 a,e,i = 0.86, 0.19, 3                   q = 0.6959
Date    TT    R. A. (2000) Decl.     Delta      r    Elong.  Phase     V
2023 10 09    06 55 04.7 +36 00 08   0.07272 1.0063    93.6    82.2    25.5
...
2023 10 24    06 25 00.0 +30 05 37   0.04448 1.0140   114.4    63.3    23.8
...
2023 11 01    05 40 23.0 +21 34 41   0.02995 1.0132   132.5    46.2    22.5
...
2023 11 07    04 33 41.3 +06 47 34   0.02149 1.0103   152.1    27.3    21.2
2023 11 08    04 18 24.9 +03 10 32   0.02055 1.0096   154.6    24.9    21.0
2023 11 09    04 01 52.0 -00 45 23   0.01980 1.0088   155.9    23.7    20.9
...
2023 11 15    02 04 39.1 -25 00 29   0.02021 1.0033   133.1    46.0    21.6
...
2023 11 23    23 54 58.8 -39 01 56   0.03039 0.9928    99.0    79.3    23.5
...
2023 12 08    22 11 19.7 -42 10 43   0.05618 0.9646    67.0   109.9    26.1
M. P. C. Staff               (C) Copyright 2023 MPC           M.P.E.C. 2023-V113
    
    
More information about the Iaude
mailing list